Content
SEND FEEDBACK

Daily
Averages
Monthly
Summary
France

LE HAVRE, FRANCE


Home > Europe > France
Elevation: 338 feet     Latitude: 49 31N     Longitude: 000 04E

WEATHER
 
SELECT A DAY
Number of Records: 184,310;   Date Range: 3/4/97 - 10/30/14
 
SHARE

PRINT THIS DATA

[ ← Previous Day ]
WEATHER ALMANAC - APRIL 23, 2013
[ Next Day → ]
[ °C ]   °F
Weather ElementAverageHighLow
Temperature50.4 °F55.4 °F (5:30 pm)48.2 °F (9:00 am)
Dewpoint46.5 °F48.2 °F (7:00 am)42.8 °F (12:30 am)
Humidity86.6 %100 % (9:00 am)76 % (12:30 am)
Barometer30.18 in30.27 in (10:00 pm)30.09 in (12:30 am)
Wind Speed9.4 mph16.1 mph (7:00 am)
Weather ElementAverage
Visibility5.1 mi
Wind DirectionWSW (258.9 °)

Weather ElementTotal
Precipitation---
Heating Degree Days13.2 (Base 65)
Growing Degree Days1.8 (Base 50)
Averaged from 46 records on April 23, 2013
WEATHER CONDITIONS BREAKOUT
WIND DIRECTION BREAKOUT
WEATHER BY HOUR - APRIL 23, 2013
[ °C ]   °F
Local TimeTemperatureDewpointHumidityBarometerVisibilityWind DirectionWind SpeedGust SpeedPrecipitationEventsConditions
12:30 AM50.0 °F42.8 °F76 %30.09 in6.2 miSW (230°)10.4 mphOvercast
1:00 AM50.0 °F42.8 °F76 %30.09 in6.2 miSW (220°)10.4 mphOvercast
1:30 AM50.0 °F42.8 °F76 %30.09 in6.2 miSSW (210°)8.1 mphOvercast
2:00 AM50.0 °F42.8 °F76 %30.09 in6.2 miSW (220°)10.4 mphOvercast
2:30 AM50.0 °F42.8 °F76 %30.09 in6.2 miSW (220°)10.4 mphOvercast
3:00 AM50.0 °F42.8 °F76 %30.09 in6.2 miSW (220°)9.2 mphOvercast
3:30 AM50.0 °F42.8 °F76 %30.09 in6.2 miSW (220°)9.2 mphOvercast
4:00 AM50.0 °F44.6 °F82 %30.09 in6.2 miSW (220°)12.7 mphOvercast
4:30 AM50.0 °F44.6 °F82 %30.09 in6.2 miSW (230°)12.7 mphOvercast
5:00 AM50.0 °F46.4 °F87 %30.09 in6.2 miSW (230°)11.5 mphOvercast
5:30 AM50.0 °F44.6 °F82 %30.09 in6.2 miSW (230°)11.5 mphOvercast
6:00 AM50.0 °F46.4 °F87 %30.09 in6.2 miWSW (240°)15.0 mphOvercast
6:30 AM50.0 °F46.4 °F87 %30.09 in6.2 miWSW (240°)12.7 mphOvercast
7:00 AM50.0 °F48.2 °F94 %30.09 in6.2 miWSW (240°)16.1 mphOvercast
7:30 AM50.0 °F48.2 °F94 %30.12 inSW (230°)12.7 mphOvercast
8:00 AM50.0 °F48.2 °F94 %30.12 in1.7 miWSW (240°)13.8 mphLight Drizzle
8:30 AM50.0 °F48.2 °F94 %30.15 in0.2 miWSW (250°)13.8 mphFogLight Drizzle
9:00 AM48.2 °F48.2 °F100 %30.15 in0.7 miWest (260°)11.5 mphMist
9:30 AM48.2 °F46.4 °F93 %30.15 in1.7 miWNW (290°)10.4 mphMist
10:00 AM48.2 °F46.4 °F93 %30.18 in0.1 miWest (280°)9.2 mphFogFog
10:30 AM48.2 °F46.4 °F93 %30.18 in0.1 miWest (260°)8.1 mphFogFog
11:00 AM48.2 °F48.2 °F100 %30.18 in0.2 miWest (260°)11.5 mphFogFog
12:00 PM48.2 °F48.2 °F100 %30.21 in0.5 miWest (260°)11.5 mphFogFog
12:30 PM48.2 °F48.2 °F100 %30.21 in5.0 miWSW (250°)10.4 mphOvercast
1:00 PM50.0 °F48.2 °F94 %30.21 in6.2 miWSW (250°)10.4 mphOvercast
1:30 PM50.0 °F48.2 °F94 %30.21 in6.2 miWest (260°)10.4 mphOvercast
2:00 PM50.0 °F46.4 °F87 %30.21 in6.2 miWNW (290°)9.2 mphOvercast
2:30 PM51.8 °F48.2 °F88 %30.24 in6.2 miWNW (290°)8.1 mphMostly Cloudy
3:00 PM53.6 °F48.2 °F82 %30.24 in6.2 miWest (280°)6.9 mphPartly Cloudy
3:30 PM53.6 °F48.2 °F82 %30.24 in6.2 miWest (280°)10.4 mphPartly Cloudy
4:00 PM53.6 °F48.2 °F82 %30.24 in6.2 miWest (280°)8.1 mph
4:30 PM53.6 °F48.2 °F82 %30.24 in6.2 miWNW (300°)8.1 mphScattered Clouds
5:00 PM53.6 °F48.2 °F82 %30.21 in6.2 miWest (280°)6.9 mphPartly Cloudy
5:30 PM55.4 °F48.2 °F77 %30.21 in6.2 miWest (280°)6.9 mph
6:00 PM53.6 °F48.2 °F82 %30.21 in6.2 miWNW (290°)5.8 mph
6:30 PM53.6 °F48.2 °F82 %30.21 in6.2 miNW (310°)5.8 mph
7:00 PM53.6 °F46.4 °F77 %30.24 in6.2 miWNW (300°)6.9 mph
7:30 PM53.6 °F46.4 °F77 %30.21 in6.2 miWNW (290°)5.8 mph
8:00 PM51.8 °F46.4 °F82 %30.24 in6.2 miWest (280°)8.1 mph
8:30 PM50.0 °F46.4 °F87 %30.24 in6.2 miWest (270°)6.9 mph
9:00 PM50.0 °F46.4 °F87 %30.24 in6.2 miWest (260°)5.8 mph
9:30 PM48.2 °F46.4 °F93 %30.24 in6.2 miWest (270°)5.8 mph
10:00 PM48.2 °F46.4 °F93 %30.27 in5.6 miWNW (290°)8.1 mph
10:30 PM48.2 °F46.4 °F93 %30.27 in3.7 miWNW (300°)5.8 mph
11:00 PM48.2 °F46.4 °F93 %30.27 in5.6 miWSW (240°)3.5 mph
11:30 PM48.2 °F46.4 °F93 %30.27 in5.6 miWest (270°)6.9 mph
Hourly data recorded from LFOH, located miles away from Le Havre, France







STORIES FROM OUR PARTNERS